Dewpoint
25 25 26 26 27 28 28 28 28 33 36 37 37 40 42 43 46 48 51 54 59 60 58 58 57 57 55
24 24 25 26 27 28 26 24 28 31 35 35 37 39 38 39 41 44 48 50 53 58 58 57 56 56 55
24 25 26 26 27 27 27 29 28 30 32 34 37 35 36 36 38 42 46 47 51 55 55 55 55 56 55
25 25 26 26 28 27 27 30 29 28 30 33 34 33 33 35 36 38 41 45 48 55 54 53 53 54 54
24 25 25 25 25 27 27 29 29 30 32 31 30 31 32 33 35 38 40 45 48 53 54 53 52 52 52
26 26 25 25 26 27 27 27 25 32 30 30 30 30 31 33 35 36 39 43 45 49 53 52 52 51 51
29 27 27 27 27 27 28 28 28 30 30 28 29 29 31 29 34 37 37 39 42 46 52 51 51 50 49
24 25 29 30 29 29 29 30 29 30 30 26 29 29 31 34 34 38 41 40 41 46 51 51 50 49 48
28 29 29 29 31 30 29 28 26 27 28 27 27 29 31 34 38 37 39 42 43 47 49 50 50 49 48
25 27 28 28 30 31 33 29 26 25 28 27 27 30 30 33 32 33 36 37 38 41 48 50 49 50 49
27 27 26 26 27 27 30 33 30 29 28 30 31 30 29 27 27 27 33 34 35 38 47 49 49 50 48
28 28 28 26 27 27 28 29 31 31 30 34 32 30 29 27 25 29 30 31 34 35 38 50 49 50 48
28 29 28 28 27 28 28 29 30 30 29 32 31 31 30 28 28 27 27 30 31 35 37 47 49 50 48
26 27 29 29 28 28 28 29 28 27 29 30 32 31 29 29 29 27 27 28 31 32 35 36 46 50 48
26 27 27 27 27 29 29 28 26 26 26 28 30 31 31 30 28 27 26 27 30 32 34 34 37 49 48
26 27 25 24 24 28 28 26 26 25 25 28 28 29 30 30 31 29 27 27 29 31 34 33 35 43 48
25 25 24 24 25 27 28 27 25 26 27 28 28 26 25 22 26 31 29 29 28 29 32 33 34 37 47
Lifted_Index
20 20 19 20 20 21 22 22 22 22 21 21 21 20 18 15 12 9 6 4 2 2 3 4 6 8 9
20 20 20 20 20 20 21 21 22 22 21 21 21 20 19 17 13 10 7 5 3 2 3 4 6 8 9
20 20 20 20 20 20 20 20 21 21 21 21 21 21 20 19 15 11 8 6 4 2 2 3 5 7 9
19 19 19 19 19 20 20 20 20 21 21 21 21 21 21 20 18 13 9 6 4 2 2 3 5 7 9
18 18 18 18 18 19 19 19 19 20 20 20 20 20 20 20 19 16 11 7 5 3 2 3 5 7 9
17 17 17 17 17 18 18 18 19 19 20 20 20 20 20 21 20 18 14 9 6 4 3 3 5 6 8
16 16 16 16 16 17 17 18 18 19 19 20 19 19 20 21 20 19 16 11 7 5 4 4 4 5 7
14 14 14 14 14 15 16 17 18 18 19 19 19 20 20 20 20 19 17 13 9 6 5 4 4 5 6
12 12 12 12 12 13 14 16 16 17 18 19 19 20 20 20 19 18 17 14 10 7 6 5 4 5 6
10 10 10 10 10 11 12 14 15 16 17 18 18 19 20 20 20 19 17 15 12 9 7 6 5 5 6
10 10 10 10 10 10 11 12 14 15 16 17 18 19 19 20 20 19 18 16 14 10 8 7 6 5 5
10 10 9 9 9 9 10 11 12 14 15 17 18 18 19 19 20 20 19 17 14 11 9 7 6 6 5
10 9 9 9 9 9 9 10 11 12 14 16 17 18 19 19 19 20 19 17 15 12 9 8 7 7 7
10 10 9 9 9 9 9 9 10 10 12 14 16 17 18 19 19 19 20 18 16 13 10 9 8 8 8
10 10 9 9 9 9 9 9 9 10 10 12 14 16 18 18 18 18 19 19 17 14 11 10 9 9 9
10 10 10 9 9 9 9 9 9 9 9 10 12 14 16 17 18 18 18 19 18 16 13 11 9 10 10
10 10 10 9 9 9 9 9 9 9 9 9 11 13 14 16 17 17 17 18 18 17 15 12 10 10 11